| time (UTC) | temp C | wind direction | speed KPH | gust KPH | rain 1hr cm | rain 24hr cm | rain mn cm | humidity % | barometer mb |
| 20260904191118 | 31 | 93 | 3.2 | 8.0 | 0.00 | 0.00 | 0.00 | 67 | 1015.4 |
| 20260904190613 | 31 | 132 | 1.6 | 8.0 | 0.00 | 0.00 | 0.00 | 67 | 1015.4 |
| 20260904190107 | 30 | 165 | 1.6 | 9.7 | 0.00 | 0.00 | 0.00 | 68 | 1015.4 |
| 20260904185601 | 30 | 168 | 3.2 | 12.9 | 0.00 | 0.00 | 0.00 | 66 | 1015.4 |
| 20260904185055 | 30 | 116 | 3.2 | 11.3 | 0.00 | 0.00 | 0.00 | 66 | 1015.5 |
| 20260904184549 | 31 | 121 | 3.2 | 12.9 | 0.00 | 0.00 | 0.00 | 67 | 1015.5 |
| 20260904184043 | 31 | 150 | 3.2 | 12.9 | 0.00 | 0.00 | 0.00 | 66 | 1015.6 |
| 20260904183537 | 31 | 155 | 3.2 | 12.9 | 0.00 | 0.00 | 0.00 | 67 | 1015.6 |
| 20260904183030 | 31 | 169 | 3.2 | 12.9 | 0.00 | 0.00 | 0.00 | 67 | 1015.6 |
| 20260904182757 | 31 | 115 | 4.8 | 11.3 | 0.00 | 0.00 | 0.00 | 67 | 1015.7 |
| 20260904182023 | 31 | 84 | 4.8 | 11.3 | 0.00 | 0.00 | 0.00 | 66 | 1015.7 |
| 20260904181755 | 31 | 197 | 4.8 | 17.7 | 0.00 | 0.00 | 0.00 | 66 | 1015.8 |
| 20260904181021 | 31 | 210 | 4.8 | 17.7 | 0.00 | 0.00 | 0.00 | 65 | 1015.9 |
| 20260904180521 | 31 | 131 | 4.8 | 14.5 | 0.00 | 0.00 | 0.00 | 64 | 1015.9 |
| 20260904180021 | 31 | 126 | 4.8 | 14.5 | 0.00 | 0.00 | 0.00 | 65 | 1015.9 |
| 20260904175521 | 31 | 143 | 4.8 | 14.5 | 0.00 | 0.00 | 0.00 | 66 | 1015.9 |
| 20260904175020 | 31 | 126 | 4.8 | 14.5 | 0.00 | 0.00 | 0.00 | 67 | 1015.9 |
| 20260904174520 | 31 | 157 | 4.8 | 12.9 | 0.00 | 0.00 | 0.00 | 66 | 1015.9 |
| 20260904174021 | 31 | 109 | 4.8 | 19.3 | 0.00 | 0.00 | 0.00 | 68 | 1016.0 |
| 20260904173521 | 31 | 163 | 4.8 | 19.3 | 0.00 | 0.00 | 0.00 | 67 | 1016.0 |
| 20260904173021 | 31 | 117 | 4.8 | 16.1 | 0.00 | 0.00 | 0.00 | 68 | 1016.1 |
| 20260904172521 | 31 | 163 | 4.8 | 16.1 | 0.00 | 0.00 | 0.00 | 66 | 1016.2 |
| 20260904172017 | 31 | 205 | 4.8 | 14.5 | 0.00 | 0.00 | 0.00 | 67 | 1016.3 |
| 20260904171517 | 31 | 115 | 3.2 | 14.5 | 0.00 | 0.00 | 0.00 | 67 | 1016.3 |
| 20260904171017 | 31 | 136 | 3.2 | 14.5 | 0.00 | 0.00 | 0.00 | 69 | 1016.4 |
| 20260904170017 | 30 | 167 | 3.2 | 11.3 | 0.00 | 0.00 | 0.00 | 70 | 1016.4 |
| 20260904165518 | 30 | 153 | 4.8 | 11.3 | 0.00 | 0.00 | 0.00 | 70 | 1016.5 |
| 20260904165018 | 30 | 72 | 4.8 | 14.5 | 0.00 | 0.00 | 0.00 | 71 | 1016.6 |
| 20260904164517 | 30 | 169 | 4.8 | 14.5 | 0.00 | 0.00 | 0.00 | 72 | 1016.6 |
| 20260904164018 | 30 | 128 | 4.8 | 14.5 | 0.00 | 0.00 | 0.00 | 71 | 1016.6 |
| 20260904163514 | 30 | 144 | 3.2 | 14.5 | 0.00 | 0.00 | 0.00 | 71 | 1016.6 |
| 20260904163012 | 30 | 124 | 3.2 | 8.0 | 0.00 | 0.00 | 0.00 | 70 | 1016.5 |
| 20260904162513 | 30 | 101 | 1.6 | 9.7 | 0.00 | 0.00 | 0.00 | 70 | 1016.6 |
| 20260904162014 | 30 | 146 | 3.2 | 12.9 | 0.00 | 0.00 | 0.00 | 72 | 1016.5 |
| 20260904161512 | 30 | 157 | 3.2 | 12.9 | 0.00 | 0.00 | 0.00 | 73 | 1016.5 |
| 20260904161243 | 29 | 153 | 3.2 | 14.5 | 0.00 | 0.00 | 0.00 | 74 | 1016.5 |
| 20260904160509 | 29 | 157 | 4.8 | 14.5 | 0.00 | 0.00 | 0.00 | 74 | 1016.5 |
| 20260904160009 | 29 | 94 | 4.8 | 17.7 | 0.00 | 0.00 | 0.00 | 75 | 1016.6 |
| 20260904155509 | 29 | 115 | 4.8 | 17.7 | 0.00 | 0.00 | 0.00 | 74 | 1016.6 |
| 20260904155242 | 29 | 171 | 4.8 | 11.3 | 0.00 | 0.00 | 0.00 | 74 | 1016.6 |
| 20260904154509 | 29 | 171 | 4.8 | 12.9 | 0.00 | 0.00 | 0.00 | 74 | 1016.6 |
| 20260904154007 | 29 | 119 | 4.8 | 16.1 | 0.00 | 0.00 | 0.00 | 76 | 1016.5 |
| 20260904153507 | 28 | 115 | 4.8 | 16.1 | 0.00 | 0.00 | 0.00 | 77 | 1016.4 |
| 20260904153007 | 28 | 71 | 3.2 | 11.3 | 0.00 | 0.00 | 0.00 | 78 | 1016.4 |
| 20260904152509 | 28 | 123 | 3.2 | 11.3 | 0.00 | 0.00 | 0.00 | 79 | 1016.3 |
| 20260904152002 | 27 | 126 | 3.2 | 16.1 | 0.00 | 0.00 | 0.00 | 80 | 1016.2 |
| 20260904151456 | 27 | 155 | 3.2 | 16.1 | 0.00 | 0.00 | 0.00 | 79 | 1016.2 |
| 20260904150950 | 28 | 149 | 1.6 | 12.9 | 0.00 | 0.00 | 0.00 | 80 | 1016.2 |
| 20260904150444 | 28 | 225 | 3.2 | 11.3 | 0.00 | 0.00 | 0.00 | 79 | 1016.2 |
| 20260904145939 | 28 | 91 | 1.6 | 11.3 | 0.00 | 0.00 | 0.00 | 79 | 1016.2 |
| 20260904145433 | 27 | 116 | 3.2 | 11.3 | 0.00 | 0.00 | 0.00 | 81 | 1016.2 |
| 20260904144927 | 27 | 138 | 3.2 | 16.1 | 0.00 | 0.00 | 0.00 | 81 | 1016.2 |
| 20260904144422 | 27 | 146 | 3.2 | 16.1 | 0.00 | 0.00 | 0.00 | 83 | 1016.3 |
| 20260904143915 | 27 | 132 | 3.2 | 11.3 | 0.00 | 0.00 | 0.00 | 84 | 1016.2 |
| 20260904143408 | 26 | 176 | 4.8 | 12.9 | 0.00 | 0.00 | 0.00 | 84 | 1016.2 |
| 20260904142902 | 26 | 169 | 4.8 | 12.9 | 0.00 | 0.00 | 0.00 | 84 | 1016.2 |
| 20260904142356 | 26 | 217 | 4.8 | 12.9 | 0.00 | 0.00 | 0.00 | 84 | 1016.2 |
| 20260904141850 | 26 | 165 | 3.2 | 11.3 | 0.00 | 0.00 | 0.00 | 85 | 1016.2 |
| 20260904141344 | 26 | 153 | 3.2 | 14.5 | 0.00 | 0.00 | 0.00 | 85 | 1016.0 |
| 20260904140838 | 26 | 205 | 3.2 | 14.5 | 0.00 | 0.00 | 0.00 | 86 | 1016.1 |
| 20260904140332 | 26 | 166 | 3.2 | 9.7 | 0.00 | 0.00 | 0.00 | 86 | 1016.1 |
| 20260904140059 | 26 | 182 | 1.6 | 9.7 | 0.00 | 0.00 | 0.00 | 86 | 1016.1 |
| 20260904135333 | 26 | 175 | 3.2 | 9.7 | 0.00 | 0.00 | 0.00 | 86 | 1016.2 |
| 20260904134308 | 26 | 181 | 1.6 | 11.3 | 0.00 | 0.00 | 0.00 | 87 | 1016.0 |
| 20260904134034 | 26 | 181 | 3.2 | 12.9 | 0.00 | 0.00 | 0.00 | 87 | 1016.0 |
| 20260904133256 | 26 | 177 | 3.2 | 12.9 | 0.00 | 0.00 | 0.00 | 87 | 1016.0 |
| 20260904132750 | 25 | 169 | 3.2 | 9.7 | 0.00 | 0.00 | 0.00 | 87 | 1015.9 |
| 20260904132244 | 25 | 175 | 4.8 | 12.9 | 0.00 | 0.00 | 0.00 | 87 | 1015.8 |
| 20260904131738 | 25 | 160 | 4.8 | 14.5 | 0.00 | 0.00 | 0.00 | 87 | 1015.8 |
| 20260904131232 | 25 | 195 | 1.6 | 9.7 | 0.00 | 0.00 | 0.00 | 87 | 1015.6 |
| 20260904130726 | 25 | 153 | 3.2 | 9.7 | 0.00 | 0.00 | 0.00 | 88 | 1015.5 |
| 20260904130452 | 25 | 155 | 3.2 | 9.7 | 0.00 | 0.00 | 0.00 | 87 | 1015.5 |
| 20260904125714 | 25 | 160 | 1.6 | 8.0 | 0.00 | 0.00 | 0.00 | 87 | 1015.4 |
| 20260904125439 | 25 | 161 | 1.6 | 11.3 | 0.00 | 0.00 | 0.00 | 88 | 1015.5 |
| 20260904124933 | 25 | 150 | 1.6 | 9.7 | 0.00 | 0.00 | 0.00 | 87 | 1015.5 |
| 20260904124157 | 25 | 147 | 1.6 | 6.4 | 0.00 | 0.00 | 0.00 | 87 | 1015.4 |
| 20260904123651 | 25 | 145 | 1.6 | 6.4 | 0.00 | 0.00 | 0.00 | 87 | 1015.3 |
| 20260904123145 | 25 | 134 | 1.6 | 8.0 | 0.00 | 0.00 | 0.00 | 87 | 1015.3 |
| 20260904122639 | 25 | 129 | 1.6 | 6.4 | 0.00 | 0.00 | 0.00 | 87 | 1015.2 |
| 20260904122136 | 25 | 179 | 1.6 | 9.7 | 0.00 | 0.00 | 0.00 | 87 | 1015.2 |
| 20260904121906 | 25 | 202 | 1.6 | 11.3 | 0.00 | 0.00 | 0.00 | 87 | 1015.2 |
| 20260904121136 | 25 | 153 | 1.6 | 11.3 | 0.00 | 0.00 | 0.00 | 87 | 1015.0 |
| 20260904120634 | 25 | 233 | 1.6 | 8.0 | 0.00 | 0.00 | 0.00 | 87 | 1015.0 |
| 20260904120132 | 25 | 171 | 3.2 | 8.0 | 0.00 | 0.00 | 0.00 | 87 | 1014.9 |
| 20260904115632 | 25 | 194 | 1.6 | 8.0 | 0.00 | 0.00 | 0.00 | 87 | 1015.0 |
| 20260904115132 | 25 | 169 | 1.6 | 8.0 | 0.00 | 0.00 | 0.00 | 87 | 1014.9 |
| 20260904114630 | 25 | 169 | 3.2 | 11.3 | 0.00 | 0.00 | 0.00 | 87 | 1014.9 |
| 20260904114130 | 25 | 142 | 3.2 | 12.9 | 0.00 | 0.00 | 0.00 | 87 | 1014.8 |
| 20260904113630 | 25 | 157 | 1.6 | 12.9 | 0.00 | 0.00 | 0.00 | 87 | 1014.8 |
| 20260904113129 | 25 | 178 | 3.2 | 8.0 | 0.00 | 0.00 | 0.00 | 87 | 1014.7 |
| 20260904112632 | 25 | 167 | 1.6 | 6.4 | 0.00 | 0.00 | 0.00 | 87 | 1014.7 |
| 20260904112131 | 25 | 167 | 1.6 | 9.7 | 0.00 | 0.00 | 0.00 | 86 | 1014.5 |
| 20260904111628 | 25 | 165 | 1.6 | 9.7 | 0.00 | 0.00 | 0.00 | 86 | 1014.5 |
| 20260904111128 | 25 | 157 | 1.6 | 9.7 | 0.00 | 0.00 | 0.00 | 86 | 1014.3 |
| 20260904110628 | 25 | 154 | 1.6 | 9.7 | 0.00 | 0.00 | 0.00 | 86 | 1014.4 |
| 20260904110128 | 25 | 197 | 1.6 | 9.7 | 0.00 | 0.00 | 0.00 | 85 | 1014.3 |
| 20260904105624 | 26 | 211 | 1.6 | 9.7 | 0.00 | 0.00 | 0.00 | 85 | 1014.4 |
| 20260904105123 | 26 | 194 | 1.6 | 8.0 | 0.00 | 0.00 | 0.00 | 85 | 1014.4 |
| 20260904104623 | 26 | 178 | 1.6 | 9.7 | 0.00 | 0.00 | 0.00 | 85 | 1014.4 |
| 20260904104123 | 26 | 166 | 1.6 | 9.7 | 0.00 | 0.00 | 0.00 | 85 | 1014.5 |
| 20260904103624 | 26 | 148 | 1.6 | 8.0 | 0.00 | 0.00 | 0.00 | 85 | 1014.4 |
| 20260904103124 | 26 | 196 | 3.2 | 8.0 | 0.00 | 0.00 | 0.00 | 85 | 1014.4 |
| 20260904102624 | 26 | 190 | 3.2 | 9.7 | 0.00 | 0.00 | 0.00 | 84 | 1014.4 |
| 20260904101624 | 26 | 191 | 3.2 | 9.7 | 0.00 | 0.00 | 0.00 | 84 | 1014.4 |
| 20260904101123 | 26 | 225 | 3.2 | 14.5 | 0.00 | 0.00 | 0.00 | 84 | 1014.4 |
| 20260904100623 | 26 | 267 | 3.2 | 16.1 | 0.00 | 0.00 | 0.00 | 84 | 1014.4 |
| 20260904100123 | 26 | 182 | 1.6 | 16.1 | 0.00 | 0.00 | 0.00 | 83 | 1014.3 |
| 20260904095854 | 26 | 222 | 1.6 | 8.0 | 0.00 | 0.00 | 0.00 | 84 | 1014.3 |
| 20260904095123 | 26 | 208 | 3.2 | 9.7 | 0.00 | 0.00 | 0.00 | 84 | 1014.3 |
| 20260904094623 | 26 | 355 | 1.6 | 9.7 | 0.00 | 0.00 | 0.00 | 84 | 1014.4 |
| 20260904094353 | 26 | 169 | 1.6 | 9.7 | 0.00 | 0.00 | 0.00 | 84 | 1014.3 |
| 20260904093622 | 26 | 227 | 3.2 | 16.1 | 0.00 | 0.00 | 0.00 | 84 | 1014.3 |
| 20260904093122 | 26 | 208 | 4.8 | 16.1 | 0.00 | 0.00 | 0.00 | 84 | 1014.3 |
| 20260904092621 | 26 | 205 | 4.8 | 11.3 | 0.00 | 0.00 | 0.00 | 84 | 1014.3 |
| 20260904092115 | 26 | 173 | 3.2 | 11.3 | 0.00 | 0.00 | 0.00 | 83 | 1014.3 |
| 20260904091609 | 26 | 176 | 4.8 | 11.3 | 0.00 | 0.00 | 0.00 | 83 | 1014.3 |
| 20260904091103 | 26 | 239 | 3.2 | 14.5 | 0.00 | 0.00 | 0.00 | 83 | 1014.3 |
| 20260904090556 | 26 | 194 | 3.2 | 14.5 | 0.00 | 0.00 | 0.00 | 83 | 1014.4 |
| 20260904090050 | 26 | 180 | 3.2 | 9.7 | 0.00 | 0.00 | 0.00 | 84 | 1014.3 |
| 20260904085545 | 26 | 239 | 3.2 | 9.7 | 0.00 | 0.00 | 0.00 | 83 | 1014.4 |
| 20260904085038 | 26 | 201 | 3.2 | 11.3 | 0.00 | 0.00 | 0.00 | 84 | 1014.3 |
| 20260904084533 | 26 | 165 | 3.2 | 11.3 | 0.00 | 0.00 | 0.00 | 83 | 1014.3 |
| 20260904084257 | 26 | 187 | 3.2 | 11.3 | 0.00 | 0.00 | 0.00 | 83 | 1014.5 |
| 20260904083014 | 26 | 123 | 4.8 | 12.9 | 0.00 | 0.00 | 0.00 | 83 | 1014.4 |
| 20260904082738 | 26 | 225 | 3.2 | 12.9 | 0.00 | 0.00 | 0.00 | 83 | 1014.4 |
| 20260904082231 | 26 | 269 | 1.6 | 11.3 | 0.00 | 0.00 | 0.00 | 83 | 1014.4 |
| 20260904081455 | 26 | 202 | 1.6 | 8.0 | 0.00 | 0.00 | 0.00 | 83 | 1014.5 |
| 20260904081219 | 26 | 169 | 1.6 | 12.9 | 0.00 | 0.00 | 0.00 | 83 | 1014.5 |
| 20260904080443 | 26 | 180 | 1.6 | 12.9 | 0.00 | 0.00 | 0.00 | 83 | 1014.5 |
| 20260904075937 | 26 | 192 | 1.6 | 11.3 | 0.00 | 0.00 | 0.00 | 83 | 1014.6 |
| 20260904075431 | 26 | 155 | 3.2 | 11.3 | 0.00 | 0.00 | 0.00 | 83 | 1014.5 |
| 20260904074925 | 26 | 150 | 3.2 | 11.3 | 0.00 | 0.00 | 0.00 | 83 | 1014.6 |
| 20260904074650 | 26 | 218 | 1.6 | 9.7 | 0.00 | 0.00 | 0.00 | 82 | 1014.7 |
| 20260904073914 | 26 | 157 | 1.6 | 9.7 | 0.00 | 0.00 | 0.00 | 82 | 1014.7 |
| 20260904073407 | 26 | 149 | 1.6 | 8.0 | 0.00 | 0.00 | 0.00 | 82 | 1014.7 |
| 20260904072901 | 26 | 147 | 1.6 | 11.3 | 0.00 | 0.00 | 0.00 | 82 | 1014.9 |
| 20260904072626 | 26 | 165 | 3.2 | 11.3 | 0.00 | 0.00 | 0.00 | 82 | 1014.9 |
| 20260904071848 | 26 | 166 | 1.6 | 9.7 | 0.00 | 0.00 | 0.00 | 82 | 1015.0 |
| 20260904071343 | 26 | 165 | 3.2 | 12.9 | 0.00 | 0.00 | 0.00 | 82 | 1015.0 |
| 20260904070836 | 26 | 158 | 3.2 | 12.9 | 0.00 | 0.00 | 0.00 | 82 | 1015.2 |
| 20260904070331 | 26 | 148 | 1.6 | 11.3 | 0.00 | 0.00 | 0.00 | 82 | 1015.2 |
| 20260904065825 | 26 | 161 | 1.6 | 9.7 | 0.00 | 0.00 | 0.00 | 81 | 1015.2 |
| 20260904065319 | 26 | 159 | 3.2 | 12.9 | 0.00 | 0.00 | 0.00 | 81 | 1015.0 |
| 20260904065045 | 26 | 146 | 3.2 | 12.9 | 0.00 | 0.00 | 0.00 | 81 | 1014.9 |
| 20260904064307 | 26 | 184 | 3.2 | 12.9 | 0.00 | 0.00 | 0.00 | 81 | 1015.0 |
| 20260904064032 | 26 | 189 | 3.2 | 12.9 | 0.00 | 0.00 | 0.00 | 81 | 1015.2 |
| 20260904063255 | 26 | 240 | 3.2 | 12.9 | 0.00 | 0.00 | 0.00 | 81 | 1015.0 |
| 20260904062749 | 26 | 265 | 1.6 | 12.9 | 0.00 | 0.00 | 0.00 | 81 | 1015.0 |
| 20260904062242 | 26 | 163 | 3.2 | 12.9 | 0.00 | 0.00 | 0.00 | 80 | 1015.2 |
| 20260904061737 | 26 | 144 | 4.8 | 12.9 | 0.00 | 0.00 | 0.00 | 80 | 1015.2 |
| 20260904061233 | 26 | 147 | 4.8 | 19.3 | 0.00 | 0.00 | 0.00 | 80 | 1015.2 |
| 20260904060726 | 26 | 157 | 6.4 | 19.3 | 0.00 | 0.00 | 0.00 | 80 | 1015.0 |
| 20260904060452 | 26 | 122 | 4.8 | 19.3 | 0.00 | 0.00 | 0.00 | 80 | 1015.0 |
| 20260904055715 | 26 | 161 | 3.2 | 17.7 | 0.00 | 0.00 | 0.00 | 80 | 1015.3 |
| 20260904055437 | 27 | 184 | 4.8 | 16.1 | 0.00 | 0.00 | 0.00 | 79 | 1015.2 |
| 20260904054701 | 27 | 254 | 6.4 | 17.7 | 0.00 | 0.00 | 0.00 | 79 | 1015.0 |
| 20260904054155 | 27 | 190 | 6.4 | 17.7 | 0.00 | 0.00 | 0.00 | 79 | 1015.0 |
| 20260904053649 | 27 | 149 | 4.8 | 16.1 | 0.00 | 0.00 | 0.00 | 78 | 1015.0 |
| 20260904053143 | 27 | 150 | 3.2 | 12.9 | 0.00 | 0.00 | 0.00 | 78 | 1015.2 |
| 20260904052637 | 27 | 186 | 4.8 | 14.5 | 0.00 | 0.00 | 0.00 | 78 | 1015.3 |
| 20260904052131 | 27 | 178 | 6.4 | 14.5 | 0.00 | 0.00 | 0.00 | 78 | 1015.2 |
| 20260904051855 | 27 | 174 | 6.4 | 24.1 | 0.00 | 0.00 | 0.00 | 77 | 1015.2 |
| 20260904051119 | 27 | 315 | 6.4 | 24.1 | 0.00 | 0.00 | 0.00 | 77 | 1015.0 |
| 20260904050613 | 27 | 175 | 4.8 | 17.7 | 0.00 | 0.00 | 0.00 | 77 | 1015.2 |
| 20260904050107 | 27 | 173 | 6.4 | 17.7 | 0.00 | 0.00 | 0.00 | 77 | 1015.2 |
| 20260904045600 | 27 | 147 | 6.4 | 16.1 | 0.00 | 0.00 | 0.00 | 77 | 1015.2 |
| 20260904045054 | 27 | 169 | 8.0 | 19.3 | 0.00 | 0.00 | 0.00 | 76 | 1014.9 |
| 20260904044548 | 27 | 157 | 6.4 | 19.3 | 0.00 | 0.00 | 0.00 | 75 | 1015.0 |
| 20260904044041 | 27 | 107 | 4.8 | 14.5 | 0.00 | 0.00 | 0.00 | 75 | 1014.9 |
| 20260904043535 | 27 | 157 | 4.8 | 17.7 | 0.00 | 0.00 | 0.00 | 74 | 1014.8 |
| 20260904043030 | 28 | 165 | 6.4 | 17.7 | 0.00 | 0.00 | 0.00 | 73 | 1014.6 |
| 20260904042524 | 28 | 159 | 6.4 | 22.5 | 0.00 | 0.00 | 0.00 | 71 | 1014.5 |
| 20260904042018 | 28 | 127 | 4.8 | 17.7 | 0.00 | 0.00 | 0.00 | 70 | 1014.4 |
| 20260904041511 | 28 | 140 | 4.8 | 17.7 | 0.00 | 0.00 | 0.00 | 69 | 1014.5 |
| 20260904041004 | 28 | 86 | 6.4 | 14.5 | 0.00 | 0.00 | 0.00 | 68 | 1014.4 |
| 20260904040457 | 28 | 123 | 6.4 | 14.5 | 0.00 | 0.00 | 0.00 | 67 | 1014.5 |
| 20260904035952 | 28 | 224 | 4.8 | 20.9 | 0.00 | 0.00 | 0.00 | 65 | 1014.6 |
| 20260904035446 | 29 | 178 | 4.8 | 20.9 | 0.00 | 0.00 | 0.00 | 65 | 1014.7 |
| 20260904034940 | 29 | 125 | 6.4 | 17.7 | 0.00 | 0.00 | 0.00 | 64 | 1014.6 |
| 20260904034434 | 29 | 146 | 6.4 | 17.7 | 0.00 | 0.00 | 0.00 | 64 | 1014.7 |
| 20260904034159 | 29 | 155 | 6.4 | 17.7 | 0.00 | 0.00 | 0.00 | 64 | 1014.5 |
| 20260904033422 | 29 | 163 | 6.4 | 17.7 | 0.00 | 0.00 | 0.00 | 64 | 1014.6 |
| 20260904032915 | 29 | 194 | 8.0 | 20.9 | 0.00 | 0.00 | 0.00 | 64 | 1014.5 |
| 20260904032409 | 29 | 156 | 8.0 | 20.9 | 0.00 | 0.00 | 0.00 | 63 | 1014.5 |
| 20260904031358 | 30 | 121 | 4.8 | 14.5 | 0.00 | 0.00 | 0.00 | 63 | 1014.3 |
| 20260904030852 | 30 | 126 | 3.2 | 12.9 | 0.00 | 0.00 | 0.00 | 63 | 1014.1 |
| 20260904030347 | 30 | 142 | 3.2 | 9.7 | 0.00 | 0.00 | 0.00 | 63 | 1014.2 |
| 20260904030110 | 30 | 161 | 3.2 | 12.9 | 0.00 | 0.00 | 0.00 | 63 | 1014.0 |
| 20260904025604 | 30 | 138 | 3.2 | 12.9 | 0.00 | 0.00 | 0.00 | 63 | 1013.8 |
| 20260904025058 | 30 | 126 | 3.2 | 12.9 | 0.00 | 0.00 | 0.00 | 62 | 1013.8 |
| 20260904024322 | 30 | 112 | 4.8 | 12.9 | 0.00 | 0.00 | 0.00 | 62 | 1013.7 |
| 20260904023816 | 30 | 126 | 4.8 | 12.9 | 0.00 | 0.00 | 0.00 | 62 | 1013.7 |
| 20260904023310 | 30 | 126 | 4.8 | 12.9 | 0.00 | 0.00 | 0.00 | 62 | 1013.7 |
| 20260904022805 | 30 | 138 | 4.8 | 14.5 | 0.00 | 0.00 | 0.00 | 61 | 1013.5 |
| 20260904022258 | 30 | 119 | 6.4 | 17.7 | 0.00 | 0.00 | 0.00 | 61 | 1013.3 |
| 20260904021751 | 30 | 126 | 6.4 | 17.7 | 0.00 | 0.00 | 0.00 | 61 | 1013.2 |
| 20260904021246 | 30 | 123 | 4.8 | 16.1 | 0.00 | 0.00 | 0.00 | 61 | 1013.2 |
| 20260904021010 | 30 | 110 | 4.8 | 14.5 | 0.00 | 0.00 | 0.00 | 61 | 1013.1 |
| 20260904020505 | 30 | 81 | 4.8 | 16.1 | 0.00 | 0.00 | 0.00 | 61 | 1013.0 |
| 20260904015727 | 30 | 137 | 4.8 | 16.1 | 0.00 | 0.00 | 0.00 | 61 | 1013.0 |
| 20260904015222 | 30 | 117 | 8.0 | 22.5 | 0.00 | 0.00 | 0.00 | 61 | 1012.8 |
| 20260904014722 | 30 | 139 | 9.7 | 22.5 | 0.00 | 0.00 | 0.00 | 60 | 1012.8 |
| 20260904014452 | 31 | 118 | 8.0 | 22.5 | 0.00 | 0.00 | 0.00 | 60 | 1012.8 |
| 20260904013724 | 31 | 102 | 6.4 | 20.9 | 0.00 | 0.00 | 0.00 | 60 | 1012.8 |
| 20260904013222 | 31 | 138 | 6.4 | 20.9 | 0.00 | 0.00 | 0.00 | 60 | 1012.8 |
| 20260904012722 | 31 | 102 | 8.0 | 19.3 | 0.00 | 0.00 | 0.00 | 59 | 1012.6 |
| 20260904012222 | 31 | 101 | 9.7 | 25.7 | 0.00 | 0.00 | 0.00 | 58 | 1012.6 |
| 20260904011722 | 32 | 149 | 9.7 | 25.7 | 0.00 | 0.00 | 0.00 | 58 | 1012.6 |
| 20260904011452 | 32 | 109 | 8.0 | 19.3 | 0.00 | 0.00 | 0.00 | 57 | 1012.6 |
| 20260904010220 | 32 | 94 | 8.0 | 24.1 | 0.00 | 0.00 | 0.00 | 55 | 1012.0 |
| 20260904005950 | 33 | 114 | 8.0 | 24.1 | 0.00 | 0.00 | 0.00 | 54 | 1011.9 |
| 20260904005220 | 33 | 73 | 9.7 | 20.9 | 0.00 | 0.00 | 0.00 | 53 | 1011.8 |
| 20260904004720 | 33 | 107 | 8.0 | 20.9 | 0.00 | 0.00 | 0.00 | 52 | 1011.8 |
| 20260904004220 | 33 | 134 | 6.4 | 20.9 | 0.00 | 0.00 | 0.00 | 51 | 1011.7 |
| 20260904003720 | 33 | 136 | 6.4 | 20.9 | 0.00 | 0.00 | 0.00 | 51 | 1011.7 |
| 20260904003220 | 33 | 111 | 6.4 | 16.1 | 0.00 | 0.00 | 0.00 | 50 | 1011.6 |
| 20260904002719 | 34 | 105 | 6.4 | 17.7 | 0.00 | 0.00 | 0.00 | 50 | 1011.5 |
| 20260904002217 | 34 | 69 | 6.4 | 25.7 | 0.00 | 0.00 | 0.00 | 49 | 1011.5 |
| 20260904001718 | 35 | 85 | 6.4 | 25.7 | 0.00 | 0.00 | 0.00 | 48 | 1011.4 |
| 20260904001218 | 35 | 94 | 4.8 | 16.1 | 0.00 | 0.00 | 0.00 | 47 | 1011.4 |
| 20260904000717 | 35 | 114 | 4.8 | 12.9 | 0.00 | 0.00 | 0.00 | 47 | 1011.3 |
| 20260904000218 | 35 | 126 | 4.8 | 16.1 | 0.00 | 0.00 | 0.00 | 46 | 1011.2 |
| 20260903235718 | 35 | 107 | 4.8 | 16.1 | 0.00 | 0.00 | 0.00 | 45 | 1011.2 |
| 20260903235218 | 36 | 136 | 4.8 | 12.9 | 0.00 | 0.00 | 0.00 | 43 | 1011.3 |
| 20260903234718 | 36 | 88 | 3.2 | 12.9 | 0.00 | 0.00 | 0.00 | 43 | 1011.3 |
| 20260903234217 | 36 | 62 | 3.2 | 12.9 | 0.00 | 0.00 | 0.00 | 42 | 1011.2 |
| 20260903233718 | 36 | 123 | 4.8 | 17.7 | 0.00 | 0.00 | 0.00 | 43 | 1011.3 |
| 20260903233218 | 36 | 88 | 4.8 | 17.7 | 0.00 | 0.00 | 0.00 | 43 | 1011.3 |
| 20260903232718 | 36 | 64 | 4.8 | 11.3 | 0.00 | 0.00 | 0.00 | 43 | 1011.2 |
| 20260903232218 | 36 | 116 | 3.2 | 11.3 | 0.00 | 0.00 | 0.00 | 43 | 1011.2 |
| 20260903231717 | 36 | 186 | 4.8 | 12.9 | 0.00 | 0.00 | 0.00 | 43 | 1011.1 |
| 20260903231217 | 37 | 111 | 4.8 | 12.9 | 0.00 | 0.00 | 0.00 | 43 | 1011.2 |
| 20260903230718 | 36 | 248 | 3.2 | 12.9 | 0.00 | 0.00 | 0.00 | 43 | 1011.1 |
| 20260903230449 | 36 | 130 | 3.2 | 12.9 | 0.00 | 0.00 | 0.00 | 42 | 1011.1 |
| 20260903225715 | 36 | 133 | 4.8 | 16.1 | 0.00 | 0.00 | 0.00 | 43 | 1011.1 |
| 20260903225209 | 36 | 151 | 4.8 | 16.1 | 0.00 | 0.00 | 0.00 | 43 | 1011.0 |
| 20260903224939 | 36 | 164 | 4.8 | 16.1 | 0.00 | 0.00 | 0.00 | 43 | 1011.1 |
| 20260903224431 | 37 | 111 | 4.8 | 16.1 | 0.00 | 0.00 | 0.00 | 43 | 1011.0 |
| 20260903223700 | 37 | 191 | 4.8 | 16.1 | 0.00 | 0.00 | 0.00 | 43 | 1011.1 |
| 20260903223200 | 37 | 122 | 4.8 | 14.5 | 0.00 | 0.00 | 0.00 | 43 | 1011.1 |
| 20260903222934 | 37 | 174 | 4.8 | 16.1 | 0.00 | 0.00 | 0.00 | 43 | 1011.0 |
| 20260903222200 | 37 | 130 | 3.2 | 16.1 | 0.00 | 0.00 | 0.00 | 43 | 1011.1 |
| 20260903221700 | 37 | 143 | 4.8 | 11.3 | 0.00 | 0.00 | 0.00 | 44 | 1011.1 |
| 20260903221200 | 36 | 164 | 4.8 | 9.7 | 0.00 | 0.00 | 0.00 | 44 | 1011.2 |
| 20260903220700 | 36 | 119 | 3.2 | 9.7 | 0.00 | 0.00 | 0.00 | 45 | 1011.2 |
| 20260903215658 | 36 | 176 | 4.8 | 12.9 | 0.00 | 0.00 | 0.00 | 43 | 1011.4 |
| 20260903215158 | 36 | 134 | 4.8 | 12.9 | 0.00 | 0.00 | 0.00 | 43 | 1011.4 |
| 20260903214657 | 36 | 98 | 4.8 | 12.9 | 0.00 | 0.00 | 0.00 | 43 | 1011.5 |
| 20260903214157 | 37 | 131 | 4.8 | 12.9 | 0.00 | 0.00 | 0.00 | 43 | 1011.5 |
| 20260903213658 | 37 | 126 | 4.8 | 11.3 | 0.00 | 0.00 | 0.00 | 43 | 1011.5 |
| 20260903213156 | 37 | 96 | 3.2 | 14.5 | 0.00 | 0.00 | 0.00 | 43 | 1011.5 |
| 20260903212656 | 37 | 60 | 3.2 | 16.1 | 0.00 | 0.00 | 0.00 | 43 | 1011.6 |
| 20260903212154 | 37 | 116 | 3.2 | 16.1 | 0.00 | 0.00 | 0.00 | 43 | 1011.8 |
| 20260903211919 | 37 | 155 | 1.6 | 12.9 | 0.00 | 0.00 | 0.00 | 43 | 1011.8 |
| 20260903211415 | 36 | 155 | 3.2 | 12.9 | 0.00 | 0.00 | 0.00 | 44 | 1011.8 |
| 20260903210637 | 36 | 157 | 4.8 | 14.5 | 0.00 | 0.00 | 0.00 | 44 | 1011.9 |
| 20260903210130 | 36 | 133 | 6.4 | 14.5 | 0.00 | 0.00 | 0.00 | 44 | 1012.1 |
| 20260903205625 | 36 | 170 | 4.8 | 12.9 | 0.00 | 0.00 | 0.00 | 44 | 1012.1 |
| 20260903205119 | 36 | 126 | 3.2 | 8.0 | 0.00 | 0.00 | 0.00 | 44 | 1012.1 |
| 20260903204844 | 36 | 145 | 3.2 | 8.0 | 0.00 | 0.00 | 0.00 | 45 | 1012.4 |
| 20260903204107 | 36 | 117 | 3.2 | 8.0 | 0.00 | 0.00 | 0.00 | 43 | 1012.2 |
| 20260903203601 | 37 | 117 | 3.2 | 9.7 | 0.00 | 0.00 | 0.00 | 43 | 1012.5 |
| 20260903203055 | 37 | 252 | 4.8 | 12.9 | 0.00 | 0.00 | 0.00 | 43 | 1012.6 |
| 20260903202549 | 36 | 251 | 4.8 | 12.9 | 0.00 | 0.00 | 0.00 | 44 | 1012.6 |
| 20260903202043 | 36 | 147 | 3.2 | 11.3 | 0.00 | 0.00 | 0.00 | 45 | 1012.5 |
| 20260903201537 | 36 | 161 | 3.2 | 11.3 | 0.00 | 0.00 | 0.00 | 44 | 1012.7 |
| 20260903201031 | 36 | 163 | 3.2 | 9.7 | 0.00 | 0.00 | 0.00 | 46 | 1012.7 |
| 20260903200524 | 36 | 113 | 3.2 | 11.3 | 0.00 | 0.00 | 0.00 | 47 | 1012.7 |
| 20260903200019 | 36 | 179 | 3.2 | 11.3 | 0.00 | 0.00 | 0.00 | 46 | 1012.8 |
| 20260903195744 | 36 | 108 | 3.2 | 11.3 | 0.00 | 0.00 | 0.00 | 47 | 1012.7 |
| 20260903195007 | 36 | 101 | 4.8 | 14.5 | 0.00 | 0.00 | 0.00 | 48 | 1012.9 |
| 20260903194501 | 36 | 112 | 4.8 | 14.5 | 0.00 | 0.00 | 0.00 | 49 | 1012.9 |
| 20260903193955 | 36 | 52 | 3.2 | 11.3 | 0.00 | 0.00 | 0.00 | 49 | 1013.0 |
| 20260903193449 | 36 | 152 | 4.8 | 11.3 | 0.00 | 0.00 | 0.00 | 49 | 1013.1 |
| 20260903192943 | 36 | 161 | 4.8 | 11.3 | 0.00 | 0.00 | 0.00 | 48 | 1013.2 |
| 20260903192708 | 35 | 101 | 3.2 | 11.3 | 0.00 | 0.00 | 0.00 | 51 | 1013.2 |
| 20260903192205 | 35 | 159 | 3.2 | 14.5 | 0.00 | 0.00 | 0.00 | 51 | 1013.3 |
| 20260903191435 | 35 | 130 | 3.2 | 14.5 | 0.00 | 0.00 | 0.00 | 51 | 1013.4 |